ATLAS 5 CENTAUR R/B, 40731

Orbit data source: Space-Track

ATLAS 5 CENTAUR R/B, 40731 is space debris in MEO originally from a launch on Wed, 15 Jul 2015 UTC launched from the Air Force Eastern Test Range (AFETR). Debris objects in space refer to the collection of defunct objects orbiting the Earth. Examples of debris include non-operational satellites, rocket bodies, and fragments generated from explosions, collisions, or faulty payload assembly.

Loading next visibility...
Identifier
40731, 2015-033B
Orbit
MEO
Country
Flag of USUS
Related business
Flag of USUnited Launch Alliance/Lockheed Martin (US)
Manufacturer
LMSS Denver
Mission
Spacecraft
Bus & Motor
CENTAUR SEC, RL10C-1
Mass
~2,020 kg wet, 2,020 kg dry
Launch date (UTC)
2015-07-15 (11 years ago)
Launch vehicle
Unknown
Launch site
Air Force Eastern Test Range (AFETR)
Object type
Payload
Rocket body
Debris
Shape & HBR
Cyl + 1 Nozzle, 6.1 m
Radar Cross Section
32.260 m², Large (>1 m²)

Expand to show TLE details & history
Last TLE update: 1 week ago

TLE from 1 week ago
0 ATLAS 5 CENTAUR R/B
1 40731U 15033B   26260.19554055 -.00000008  00000-0  00000-0 0  9996
2 40731  54.4810 280.7454 0239269  13.4604 347.2066  1.90866755 77906
Epoch: 2026-09-17T04:41Z
TLE epoch observation values (Epoch: 2026-09-17T04:41:34.703Z)
Latitude
-0.00004°
Longitude
-145.77354°
Altitude
20,435.24 km
Speed
3.9 km/s
True Right ascension
18h 43m 01s
True Declination
0° 00' 00"
Sunlit
Object was in daylight at epoch
Visualization orbit readout
Latitude
Unknown
Longitude
Unknown
Altitude
Unknown
Speed
Unknown
Apparent Right ascension
Unknown
Apparent Declination
Unknown
Sunlit
N/A
Visualization observer readout
Local Sidereal Time
08:21:01
Azimuth
Unknown
Elevation
Unknown
Doppler factor
Unknown
Orbital elements
Apogee altitude
21,731.227 km
Perigee altitude
20,417.521 km
Semi-major axis
27,452.511 km
Eccentricity
0.02393
Inclination
54.481°
RAAN
280.7454°
Arg. of periapsis
13.4604°
True anomaly
346.58126°
Mean anomaly
347.2066°
Eccentric anomaly
346.89578°
Mean motion
0.47717 °/min
Orbital period
754.45 mins
BSTAR
0
Loading maneuver chart data...
Computing Atmospheric mass density...
Loading historical data...
Loading historical data...
Loading historical data...
Loading historical data...
Loading historical data...
Loading historical data...
Loading historical data...
Other satellites on launch #33 in the year 2015 (2015-07-15 UTC)

Documentation

Showing up to 5 results
|